Appleton, MN

2:20 PM CDT on April 28, 2017 (GMT -0500)
Appleton Municipal

Weather History for KAQP - October, 2013

Change the Weather History Date:

Thursday, October 31, 2013

  Actual Average Record
Temperature  
Mean Temperature 40 °F -  
Max Temperature 42 °F 46 °F 77 °F (1999)
Min Temperature 37 °F 29 °F 12 °F (2002)
Degree Days  
Heating Degree Days 26    
Moisture  
Dew Point 36 °F    
Average Humidity 88    
Maximum Humidity 100    
Minimum Humidity 76    
Precipitation  
Precipitation 0.00 in - - ()
Sea Level Pressure  
Sea Level Pressure 29.54 in    
Wind  
Wind Speed 6 mph (West)    
Max Wind Speed 10 mph    
Max Gust Speed -    
Visibility 9 miles    
Events      
Averages and records for this station are not official NWS values.
T = Trace of Precipitation, MM = Missing Value Source: NWS Daily Summary

Daily Weather History Graph

Daily Weather History Graph

Search for Another Location

Airport or City:

Trip Planner

Search our weather history database for the weather conditions in past years. The results will help you decide how hot, cold, wet, or windy it might be!

Date:

Astronomy

Oct. 31, 2013 Rise Set
Actual Time 8:01 AM CDT 6:12 PM CDT
Civil Twilight 7:31 AM CDT 6:43 PM CDT
Nautical Twilight 6:56 AM CDT 7:18 PM CDT
Astronomical Twilight 6:22 AM CDT 7:52 PM CDT
Moon 4:44 AM CDT (10/31) 4:37 PM CDT (10/31)
Length of Visible Light 11h 12m
Length of Day
10h 10m
Waning Crescent, 10% of the Moon is Illuminated
Oct 31
Waning Crescent
Nov 3
New
Nov 9
First Quarter
Nov 17
Full
Nov 25
Last Quarter

Hourly Weather History & Observations

Time (CDT) Temp. Windchill Dew Point Humidity Pressure Visibility Wind Dir Wind Speed Gust Speed Precip Events Conditions
12:14 AM 39.2 °F 35.0 °F 37.4 °F 93% 29.71 in 5.0 mi West 5.8 mph - N/A   Overcast
12:33 AM 39.2 °F 35.9 °F 37.4 °F 93% 29.70 in 5.0 mi West 4.6 mph - N/A   Overcast
12:53 AM 39.2 °F 35.0 °F 37.4 °F 93% 29.69 in 5.0 mi West 5.8 mph - N/A   Overcast
1:13 AM 39.2 °F 34.2 °F 37.4 °F 93% 29.69 in 5.0 mi West 6.9 mph - N/A   Overcast
1:33 AM 37.4 °F 32.1 °F 37.4 °F 100% 29.68 in 5.0 mi West 6.9 mph - N/A   Overcast
1:53 AM 37.4 °F 32.8 °F 35.6 °F 93% 29.67 in 7.0 mi WNW 5.8 mph - N/A   Overcast
2:14 AM 37.4 °F 33.8 °F 35.6 °F 93% 29.66 in 7.0 mi WNW 4.6 mph - N/A   Overcast
2:33 AM 37.4 °F 32.8 °F 35.6 °F 93% 29.66 in 7.0 mi West 5.8 mph - N/A   Overcast
2:53 AM 37.4 °F 33.8 °F 35.6 °F 93% 29.65 in 5.0 mi West 4.6 mph - N/A   Overcast
3:13 AM 37.4 °F 32.8 °F 35.6 °F 93% 29.64 in 7.0 mi West 5.8 mph - N/A   Overcast
3:33 AM 37.4 °F 32.1 °F 35.6 °F 93% 29.64 in 7.0 mi West 6.9 mph - N/A   Overcast
3:53 AM 37.4 °F 31.4 °F 35.6 °F 93% 29.64 in 7.0 mi West 8.1 mph - N/A   Overcast
4:13 AM 37.4 °F 32.1 °F 35.6 °F 93% 29.63 in 7.0 mi West 6.9 mph - N/A   Overcast
4:33 AM 37.4 °F 32.8 °F 35.6 °F 93% 29.61 in 7.0 mi West 5.8 mph - N/A   Overcast
4:54 AM 37.4 °F 33.8 °F 35.6 °F 93% 29.61 in 7.0 mi WNW 4.6 mph - N/A   Overcast
5:14 AM 37.4 °F 32.8 °F 35.6 °F 93% 29.59 in 7.0 mi WNW 5.8 mph - N/A   Overcast
5:34 AM 37.4 °F 32.8 °F 35.6 °F 93% 29.59 in 7.0 mi NW 5.8 mph - N/A   Overcast
5:53 AM 37.4 °F 33.8 °F 35.6 °F 93% 29.58 in 10.0 mi NW 4.6 mph - N/A   Overcast
6:13 AM 37.4 °F 34.9 °F 35.6 °F 93% 29.59 in 10.0 mi WNW 3.5 mph - N/A   Overcast
6:33 AM 37.4 °F 34.9 °F 35.6 °F 93% 29.61 in 10.0 mi SW 3.5 mph - N/A   Overcast
6:54 AM 37.4 °F 33.8 °F 35.6 °F 93% 29.60 in 10.0 mi SW 4.6 mph - N/A   Overcast
7:13 AM 37.4 °F 34.9 °F 35.6 °F 93% 29.60 in 10.0 mi SSW 3.5 mph - N/A   Overcast
7:33 AM 37.4 °F 32.1 °F 35.6 °F 93% 29.59 in 10.0 mi SW 6.9 mph - N/A   Overcast
7:53 AM 37.4 °F 32.8 °F 35.6 °F 93% 29.58 in 10.0 mi WSW 5.8 mph - N/A   Overcast
8:13 AM 37.4 °F 30.8 °F 35.6 °F 93% 29.59 in 10.0 mi WSW 9.2 mph - N/A   Overcast
8:33 AM 37.4 °F 31.4 °F 35.6 °F 93% 29.58 in 10.0 mi West 8.1 mph - N/A   Overcast
8:53 AM 37.4 °F 31.4 °F 35.6 °F 93% 29.57 in 10.0 mi West 8.1 mph - N/A   Overcast
9:14 AM 37.4 °F 30.8 °F 35.6 °F 93% 29.56 in 10.0 mi West 9.2 mph - N/A   Overcast
9:33 AM 37.4 °F 30.8 °F 35.6 °F 93% 29.55 in 10.0 mi West 9.2 mph - N/A   Overcast
9:54 AM 39.2 °F 33.6 °F 35.6 °F 87% 29.57 in 10.0 mi West 8.1 mph - N/A   Overcast
10:13 AM 39.2 °F 33.0 °F 35.6 °F 87% 29.56 in 10.0 mi West 9.2 mph - N/A   Overcast
10:33 AM 39.2 °F 33.0 °F 35.6 °F 87% 29.56 in 10.0 mi West 9.2 mph - N/A   Overcast
10:54 AM 39.2 °F 33.0 °F 35.6 °F 87% 29.54 in 10.0 mi WNW 9.2 mph - N/A   Overcast
11:13 AM 39.2 °F 33.6 °F 35.6 °F 87% 29.53 in 10.0 mi WNW 8.1 mph - N/A   Overcast
11:33 AM 39.2 °F 32.5 °F 37.4 °F 93% 29.52 in 10.0 mi WNW 10.4 mph - N/A   Overcast
11:53 AM 41.0 °F 35.8 °F 37.4 °F 87% 29.52 in 10.0 mi WNW 8.1 mph - N/A   Overcast
12:13 PM 41.0 °F 35.8 °F 35.6 °F 81% 29.52 in 10.0 mi West 8.1 mph - N/A   Overcast
12:33 PM 41.0 °F 36.4 °F 35.6 °F 81% 29.52 in 10.0 mi WSW 6.9 mph - N/A   Overcast
12:53 PM 41.0 °F 36.4 °F 35.6 °F 81% 29.51 in 10.0 mi WSW 6.9 mph - N/A   Overcast
1:14 PM 41.0 °F 36.4 °F 35.6 °F 81% 29.50 in 10.0 mi WSW 6.9 mph - N/A   Overcast
1:33 PM 41.0 °F 35.8 °F 35.6 °F 81% 29.49 in 10.0 mi WSW 8.1 mph - N/A   Overcast
1:53 PM 41.0 °F 37.1 °F 35.6 °F 81% 29.48 in 10.0 mi WSW 5.8 mph - N/A   Overcast
2:13 PM 41.0 °F 38.0 °F 35.6 °F 81% 29.47 in 10.0 mi WSW 4.6 mph - N/A   Overcast
2:34 PM 41.0 °F 37.1 °F 35.6 °F 81% 29.46 in 10.0 mi WSW 5.8 mph - N/A   Overcast
2:54 PM 42.8 °F 38.6 °F 35.6 °F 76% 29.45 in 10.0 mi WSW 6.9 mph - N/A   Overcast
3:13 PM 42.8 °F 40.1 °F 37.4 °F 81% 29.45 in 10.0 mi WSW 4.6 mph - N/A   Overcast
3:33 PM 42.8 °F 40.1 °F 37.4 °F 81% 29.45 in 10.0 mi WSW 4.6 mph - N/A   Overcast
3:53 PM 42.8 °F 40.1 °F 37.4 °F 81% 29.45 in 10.0 mi West 4.6 mph - N/A   Overcast
4:13 PM 42.8 °F 40.1 °F 37.4 °F 81% 29.44 in 10.0 mi West 4.6 mph - N/A   Overcast
4:33 PM 42.8 °F 39.3 °F 37.4 °F 81% 29.45 in 10.0 mi West 5.8 mph - N/A   Overcast
4:53 PM 42.8 °F 40.1 °F 37.4 °F 81% 29.45 in 10.0 mi West 4.6 mph - N/A   Overcast
5:13 PM 42.8 °F 40.1 °F 37.4 °F 81% 29.45 in 7.0 mi West 4.6 mph - N/A   Overcast
5:34 PM 42.8 °F 39.3 °F 37.4 °F 81% 29.45 in 10.0 mi WNW 5.8 mph - N/A   Overcast
5:54 PM 42.8 °F 40.1 °F 37.4 °F 81% 29.45 in 10.0 mi West 4.6 mph - N/A   Overcast
6:14 PM 41.0 °F 38.0 °F 37.4 °F 87% 29.46 in 10.0 mi WNW 4.6 mph - N/A   Overcast
6:33 PM 41.0 °F 38.0 °F 37.4 °F 87% 29.46 in 10.0 mi WNW 4.6 mph - N/A   Overcast
6:53 PM 41.0 °F 38.0 °F 37.4 °F 87% 29.46 in 10.0 mi WNW 4.6 mph - N/A   Overcast
7:13 PM 41.0 °F 37.1 °F 37.4 °F 87% 29.46 in 10.0 mi WNW 5.8 mph - N/A   Overcast
7:33 PM 41.0 °F 37.1 °F 37.4 °F 87% 29.46 in 10.0 mi NW 5.8 mph - N/A   Overcast
7:53 PM 41.0 °F 38.0 °F 37.4 °F 87% 29.46 in 10.0 mi NW 4.6 mph - N/A   Overcast
8:14 PM 41.0 °F 37.1 °F 37.4 °F 87% 29.46 in 10.0 mi NW 5.8 mph - N/A   Overcast
8:33 PM 41.0 °F 37.1 °F 37.4 °F 87% 29.46 in 10.0 mi NW 5.8 mph - N/A   Overcast
8:53 PM 41.0 °F 38.0 °F 37.4 °F 87% 29.46 in 10.0 mi WNW 4.6 mph - N/A   Overcast
9:14 PM 41.0 °F 38.0 °F 37.4 °F 87% 29.46 in 10.0 mi WNW 4.6 mph - N/A   Overcast
9:33 PM 41.0 °F 37.1 °F 37.4 °F 87% 29.47 in 10.0 mi NW 5.8 mph - N/A   Overcast
9:53 PM 41.0 °F 36.4 °F 37.4 °F 87% 29.47 in 10.0 mi NW 6.9 mph - N/A   Overcast
10:13 PM 41.0 °F 36.4 °F 37.4 °F 87% 29.47 in 10.0 mi WNW 6.9 mph - N/A   Overcast
10:33 PM 41.0 °F 36.4 °F 37.4 °F 87% 29.48 in 10.0 mi West 6.9 mph - N/A   Overcast
10:54 PM 41.0 °F 36.4 °F 37.4 °F 87% 29.48 in 10.0 mi WNW 6.9 mph - N/A   Overcast
11:14 PM 41.0 °F 35.8 °F 37.4 °F 87% 29.48 in 7.0 mi WNW 8.1 mph - N/A   Overcast
11:33 PM 41.0 °F 36.4 °F 37.4 °F 87% 29.48 in 7.0 mi WNW 6.9 mph - N/A   Overcast
11:54 PM 39.2 °F 33.6 °F 37.4 °F 93% 29.48 in 7.0 mi WNW 8.1 mph - N/A   Overcast